Location: Ferintosh
(52.7647°N, 112.9692°W)
Time: 14:06:22
(UTC+00:00)

Transit 2A - Pass Details

Date: 25 May 2024
Orbit: 592 x 959 km, 66.7° (Epoch: 23 June)

Event Time Altitude Azimuth Distance (km) Brightness Sun altitude
Rises 06:24:54 0° 225° (SW) 2,965 - -14.9°
Exits shadow 06:25:37 - 225° (SW) 2,680 8.5 -14.9°
Reaches altitude 10° 06:27:06 10° 227° (SW) 2,102 8.0 -15.0°
Maximum altitude 06:31:52 73° 312° (NW) 759 6.1 -15.1°
Drops below altitude 10° 06:37:13 10° 38° (NE) 2,350 9.1 -15.3°
Sets 06:39:47 0° 40° (NE) 3,345 9.9 -15.4°
